Voltar ao catálogo

STARLINK-6262

AtivoComunicaçõesVLEO
NORAD 57091·PAYLOAD·🇺🇸 United States

Lançado Jun 22, 2023 de Vandenberg Space Force Base

Loading…

Próximas Passagens (próximas 24 horas)

TLE

AtualizadoSource: CelesTrak SupGP

Época: Sep 14, 2026, 13:46 UTC

1 57091C 23088AV  26257.57409722  .00023184  00000+0  83970-3 0  2575
2 57091  43.0005 109.1906 0001574 261.9123 335.2128 15.27567092    12

Acompanhe STARLINK-6262 em tempo real com AllMySat

Download on the App Store